This demonstration page uses our WeatherBlox Daily Observations layout. Learn more.

Left ArrowRight Arrow

Hourly Observations for February 19, 2015

Temp ( °F °C ) Dew Point ( °F °C ) Humidity (%) Winds ( mph kmh ) Pressure ( in mb ) Visibility ( mi km ) Precip ( " mm )
12:51 am 00:51 Clear 48 8.9 24 -4.4 39 39 SE 6 9 30.07 1018 10 16 0.00 0.00
1:51 am 01:51 Clear 46 7.8 24 -4.4 42 42 SE 6 9 30.06 1018 10 16 0.00 0.00
2:51 am 02:51 Clear 42 5.6 25 -3.9 51 51 Calm 30.05 1018 10 16 0.00 0.00
3:51 am 03:51 Clear 44 6.7 24 -4.4 45 45 SE 3 6 30.05 1018 10 16 0.00 0.00
4:51 am 04:51 Clear 41 5 25 -3.9 53 53 SSE 5 7 30.06 1018 10 16 0.00 0.00
5:51 am 05:51 Clear 40 4.4 25 -3.9 55 55 SSE 6 9 30.08 1019 10 16 0.00 0.00
6:51 am 06:51 Clear 40 4.4 25 -3.9 55 55 SSE 3 6 30.09 1019 10 16 0.00 0.00
7:51 am 07:51 Sunny 42 5.6 27 -2.8 55 55 SE 3 6 30.10 1019 10 16 0.00 0.00
8:51 am 08:51 Sunny 53 11.7 26 -3.3 35 35 E 3 6 30.11 1020 10 16 0.00 0.00
9:51 am 09:51 Sunny 59 15 25 -3.9 27 27 Calm 30.11 1020 10 16 0.00 0.00
10:51 am 10:51 Sunny 63 17.2 24 -4.4 23 23 Calm 30.09 1019 10 16 0.00 0.00
11:51 am 11:51 Sunny 68 20 23 -5 18 18 VRB 3 6 30.06 1018 10 16 0.00 0.00
12:51 pm 12:51 Sunny 71 21.7 25 -3.9 18 18 VRB 6 9 30.02 1017 10 16 0.00 0.00
1:51 pm 13:51 Sunny 71 21.7 21 -6.1 15 15 VRB 6 9 29.98 1015 10 16 0.00 0.00
2:51 pm 14:51 Sunny 74 23.3 22 -5.6 14 14 W 7 11 29.95 1014 10 16 0.00 0.00
3:51 pm 15:51 Sunny 75 23.9 22 -5.6 14 14 W 9 15 29.91 1013 10 16 0.00 0.00
4:51 pm 16:51 Sunny 75 23.9 23 -5 14 14 W 10 17 29.91 1013 10 16 0.00 0.00
5:51 pm 17:51 Sunny 74 23.3 17 -8.3 11 11 NW 13 20 29.91 1013 10 16 0.00 0.00
6:51 pm 18:51 Clear 64 17.8 21 -6.1 19 19 NW 10 17 29.94 1014 10 16 0.00 0.00
7:51 pm 19:51 Clear 62 16.7 20 -6.7 20 20 NNW 9 15 29.95 1014 10 16 0.00 0.00
8:51 pm 20:51 Clear 58 14.4 23 -5 26 26 WNW 9 15 29.94 1014 10 16 0.00 0.00
9:51 pm 21:51 Clear 56 13.3 22 -5.6 27 27 NNW 8 13 29.93 1014 10 16 0.00 0.00
10:51 pm 22:51 Clear 55 12.8 21 -6.1 26 26 NNW 6 9 29.93 1014 10 16 0.00 0.00
11:51 pm 23:51 Clear 49 9.4 24 -4.4 38 38 Calm 29.94 1014 10 16 0.00 0.00

Powered by AerisWeather